LEMUR-2-PETERG (42841 NORAD) Tracking and Keplerian Element Data

This shows tracking and keplerian element data for the satellite.

Feedback or suggestion? Click here.




ElementValue
Catalog42841
NameLEMUR-2-PETERG
Epoch Orbit46104
Epoch Day354.02615192
Epoch Year2025
RAAN174.8574
Inclination97.3909
Eccentricity0.0003059
Argument of Perigee259.7494
Mean Anonmoly100.3399
Mean Motion15.2566484
Decay Rate0.00015464
L11 42841U 17042S 25354.02615192 .00015464 00000+0 60956-3 0 9996
L22 42841 97.3909 174.8574 0003059 259.7494 100.3399 15.25664840461042



Live tracking and technical data element details for LEMUR-2-PETERG (NORAD 42841). LEMUR-2-PETERG can be tracked NOW for your location showing map with azimuth and elevation plus other details from your city location.







IsCatalogInMostPopularTable: catalog: 42841, numindb: 489
Update: records affected: 1



GetName: 42841 LEMUR-2-PETERG

Hit Count: updated at: Sat, 07 Mar 2026 06:52:02 GMT